Simultaneous Nadir Overpasses (SNOs) Predictions

Prediction of SNOs between NOAA-19 and NPP Satellite Orbit:

Table of predicted SNOs for the next 14.0 days since TLE Epoch: 9/27/2019
Index Date (NOAA-19) Time (NOAA-19) Lat,Lon (NOAA-19) SZA (NOAA-19 ) Date (NPP) Time (NPP) Lat,Lon (NPP) SZA (NPP ) Distance(km) Time Diff (sec)
1 10/10/2019 18:19:13 79.86,-132.09 88.27 10/10/2019 18:20:28 79.86,-132.21 88.26 2.45 75
2 10/10/2019 19:10:17 -79.86, 35.18 91.72 10/10/2019 19:11:13 -79.87, 35.05 91.73 2.58 56
3 10/10/2019 20:01:14 79.85,-157.67 88.30 10/10/2019 20:01:58 79.87,-157.62 88.29 1.81 44
4 10/10/2019 20:52:18 -79.86, 9.61 91.69 10/10/2019 20:52:43 -79.87, 9.65 91.70 1.84 25
5 10/10/2019 21:43:14 79.87, 177.05 88.32 10/10/2019 21:43:28 79.87, 176.97 88.32 1.61 14
6 10/10/2019 22:34:18 -79.87, -15.67 91.67 10/10/2019 22:34:13 -79.87, -15.76 91.66 1.86 5
7 10/10/2019 23:25:15 79.86, 151.47 88.35 10/10/2019 23:24:58 79.87, 151.56 88.35 2.04 17
8 10/11/2019 00:16:19 -79.87, -41.24 91.65 10/11/2019 00:15:43 -79.88, -41.17 91.63 1.77 36
9 10/11/2019 01:07:15 79.88, 126.20 88.37 10/11/2019 01:06:28 79.88, 126.15 88.39 1.05 47
10 10/11/2019 01:58:19 -79.89, -66.52 91.63 10/11/2019 01:57:13 -79.88, -66.58 91.60 1.37 66




NCC Satellite Simultaneous Nadir Overpasses (SNOs) Prediction Service
